Location: Unspecified
(44.0704°N, 88.6889°W)
Time: 06:10:27
(UTC+02:00)

Transit 2A - Pass Details

Date: 20 June 2019
Orbit: 594 x 964 km, 66.7° (Epoch: 20 July)

Event Time Altitude Azimuth Distance (km) Brightness Sun altitude
Rises 10:15:20 0° 250° (WSW) 3,638 - -15.4°
Exits shadow 10:17:56 - 260° (W) 2,820 8.5 -15.1°
Reaches altitude 10° 10:18:21 10° 262° (W) 2,700 8.4 -15.1°
Maximum altitude 10:23:37 27° 318° (NW) 1,767 8.0 -14.5°
Drops below altitude 10° 10:28:47 10° 14° (NNE) 2,638 9.9 -14.0°
Sets 10:31:42 0° 27° (NNE) 3,539 11.3 -13.7°
